Zurück zum Katalog

RASSVET-3 23

AktivPO
NORAD 100089·PAYLOAD·🇷🇺 Russia

Gestartet Jul 19, 2026 von Plesetsk Cosmodrome

Loading…

Nächste Überflüge (nächste 24 Stunden)

TLE

AktuellSource: Space-Track

Epoche: Sep 14, 2026, 13:07 UTC

1 A0089U 26165G   26257.54707374  .00125554  49653-5  27024-3 0  9998
2 A0089  82.2979 166.4752 0019355 197.2609 162.8012 15.98036253  9027

Verfolge RASSVET-3 23 in Echtzeit mit AllMySat

Download on the App Store